Weather History for Atwater, CA

Change the Weather History Date:

Tuesday, October 15, 2013

  Actual Average (KMCE) Record (KMCE)
Temperature  
Mean Temperature 61 °F 64 °F  
Max Temperature 80 °F 79 °F 93 °F (2010)
Min Temperature 42 °F 49 °F 43 °F (1998)
Degree Days  
Heating Degree Days 4    
Month to date heating degree days  
Since 1 July heating degree days  
Cooling Degree Days 0    
Month to date cooling degree days  
Year to date cooling degree days  
Growing Degree Days 11 (Base 50)    
Moisture  
Dew Point 43 °F    
Average Humidity 73    
Maximum Humidity 100    
Minimum Humidity 20    
Precipitation  
Precipitation 0.00 in 0.02 in 0.60 in (1969)
Month to date precipitation 0.21  
Year to date precipitation 9.20  
Since 1 July precipitation 0.52  
Snow  
Snow 0.00 in - - ()
Month to date snowfall  
Since 1 July snowfall  
Since 1 September snowfall  
Snow Depth -    
Sea Level Pressure  
Sea Level Pressure 30.01 in    
Wind  
Wind Speed 2 mph (NNW)    
Max Wind Speed 10 mph    
Max Gust Speed -    
Visibility 10 miles    
Events      
T = Trace of Precipitation, MM = Missing Value Source: NWS Daily Summary

Daily Weather History Graph

Daily Weather History Graph

Search for Another Location

Airport:

Trip Planner

Search our weather history database for the weather conditions in past years. The results will help you decide how hot, cold, wet, or windy it might be!

Date:

Astronomy

Oct. 15, 2013 Rise Set
Actual Time 7:10 AM PDT 6:24 PM PDT
Civil Twilight 6:44 AM PDT 6:50 PM PDT
Nautical Twilight 6:13 AM PDT 7:21 PM PDT
Astronomical Twilight 5:43 AM PDT 7:51 PM PDT
Moon 4:29 PM PDT (10/15) 3:42 AM PDT (10/15)
Length of Visible Light 12h 06m
Length of Day
11h 14m
Waxing Gibbous, 88% of the Moon is Illuminated
Oct 15
Waxing Gibbous
Oct 18
Full
Oct 26
Last Quarter
Nov 3
New
Nov 9
First Quarter

Hourly Weather History & Observations

Time (PDT) Temp. Windchill Dew Point Humidity Pressure Visibility Wind Dir Wind Speed Gust Speed Precip Events Conditions
12:15 AM 51.8 °F - 44.6 °F 76% 30.02 in 10.0 mi North - - N/A   Clear
12:35 AM 51.8 °F - 46.4 °F 82% 30.02 in 10.0 mi Calm Calm - N/A   Clear
12:55 AM 50.0 °F - 44.6 °F 82% 30.02 in 10.0 mi Calm Calm - N/A   Clear
1:15 AM 48.2 °F - 44.6 °F 87% 30.03 in 10.0 mi Calm Calm - N/A   Clear
1:35 AM 50.0 °F - 46.4 °F 87% 30.03 in 10.0 mi Calm Calm - N/A   Clear
1:55 AM 53.6 °F - 44.6 °F 72% 30.03 in 10.0 mi Calm Calm - N/A   Clear
2:15 AM 46.4 °F - 39.2 °F 76% 30.03 in 10.0 mi Calm Calm - N/A   Clear
2:35 AM 46.4 °F - 42.8 °F 87% 30.02 in 10.0 mi Calm Calm - N/A   Clear
2:55 AM 44.6 °F - 44.6 °F 100% 30.02 in 10.0 mi Calm Calm - N/A   Clear
3:15 AM 44.6 °F 43.1 °F 44.6 °F 100% 30.01 in 10.0 mi ENE 3.5 mph - N/A   Clear
3:35 AM 44.6 °F - 44.6 °F 100% 30.01 in 10.0 mi Calm Calm - N/A   Clear
3:55 AM 46.4 °F - 46.4 °F 100% 30.01 in 10.0 mi Calm Calm - N/A   Clear
4:15 AM 44.6 °F - 44.6 °F 100% 30.00 in 10.0 mi Calm Calm - N/A   Clear
4:35 AM 44.6 °F - 44.6 °F 100% 30.00 in 10.0 mi Calm Calm - N/A   Clear
4:55 AM 44.6 °F - 44.6 °F 100% 30.01 in 10.0 mi Calm Calm - N/A   Clear
5:15 AM 44.6 °F 43.1 °F 44.6 °F 100% 30.01 in 10.0 mi NNE 3.5 mph - N/A   Clear
5:35 AM 44.6 °F - 44.6 °F 100% 30.01 in 10.0 mi North - - N/A   Clear
5:55 AM 46.4 °F 45.2 °F 44.6 °F 93% 30.01 in 10.0 mi NE 3.5 mph - N/A   Clear
6:15 AM 42.8 °F - 42.8 °F 100% 30.02 in 10.0 mi Calm Calm - N/A   Clear
6:35 AM 44.6 °F - 44.6 °F 100% 30.02 in 10.0 mi North - - N/A   Clear
6:45 AM 44.6 °F - 44.6 °F 100% 30.02 in 10.0 mi Calm Calm - N/A   Clear
6:55 AM 44.6 °F - 44.6 °F 100% 30.02 in 10.0 mi Calm Calm - N/A   Clear
7:45 AM 46.4 °F - 44.6 °F 93% 30.03 in 10.0 mi Calm Calm - N/A   Clear
8:45 AM 55.4 °F - 46.4 °F 72% 30.04 in 10.0 mi Calm Calm - N/A   Clear
9:45 AM 62.6 °F - 39.2 °F 42% 30.04 in 10.0 mi NNW 10.4 mph - N/A   Clear
10:45 AM 68.0 °F - 39.2 °F 35% 30.04 in 10.0 mi NNW 5.8 mph - N/A   Clear
11:45 AM 71.6 °F - 39.2 °F 31% 30.03 in 10.0 mi NW 6.9 mph - N/A   Clear
12:45 PM 75.2 °F - 39.2 °F 27% 30.02 in 10.0 mi NW 6.9 mph - N/A   Clear
1:45 PM 78.8 °F - 39.2 °F 24% 29.99 in 10.0 mi NW 8.1 mph - N/A   Clear
2:50 PM 80.6 °F - 37.4 °F 21% 29.97 in 10.0 mi NW 8.1 mph - N/A   Clear
3:45 PM 80.6 °F - 35.6 °F 20% 29.96 in 10.0 mi NW 8.1 mph - N/A   Clear
4:45 PM 80.6 °F - 35.6 °F 20% 29.96 in 10.0 mi North 8.1 mph - N/A   Clear
6:45 PM 68.0 °F - 37.4 °F 33% 29.96 in 10.0 mi NNW 5.8 mph - N/A   Clear
7:45 PM 62.6 °F - 39.2 °F 42% 29.97 in 10.0 mi NNW 5.8 mph - N/A   Clear
8:45 PM 57.2 °F - 41.0 °F 55% 29.97 in 10.0 mi Calm Calm - N/A   Clear
9:15 PM 57.2 °F - 42.8 °F 59% 29.97 in 10.0 mi North - - N/A   Clear
9:35 PM 55.4 °F - 44.6 °F 67% 29.98 in 7.0 mi Calm Calm - N/A   Clear
9:55 PM 53.6 °F - 44.6 °F 72% 29.98 in 5.0 mi Calm Calm - N/A   Clear
10:15 PM 51.8 °F - 44.6 °F 76% 29.99 in 9.0 mi SE 3.5 mph - N/A   Clear
10:35 PM 51.8 °F - 46.4 °F 82% 29.99 in 10.0 mi Calm Calm - N/A   Clear
10:55 PM 51.8 °F - 46.4 °F 82% 29.99 in 10.0 mi WSW 3.5 mph - N/A   Clear
11:15 PM 53.6 °F - 42.8 °F 67% 30.00 in 10.0 mi Calm Calm - N/A   Clear
11:35 PM 51.8 °F - 42.8 °F 71% 30.00 in 10.0 mi Calm Calm - N/A   Clear
11:55 PM 50.0 °F - 42.8 °F 76% 30.00 in 10.0 mi Calm Calm - N/A   Clear